TimeCDT,TemperatureF,Dew PointF,Humidity,Sea Level PressureIn,VisibilityMPH,Wind Direction,Wind SpeedMPH,Gust SpeedMPH,PrecipitationIn,Events,Conditions,WindDirDegrees,DateUTC
12:56 AM,73.9,68.0,82,29.96,9.0,East,16.1,25.3,N/A,,Clear,80,2013-09-08 05:56:00
1:22 AM,73.4,68.0,83,29.99,9.0,East,16.1,-,N/A,,Mostly Cloudy,80,2013-09-08 06:22:00
1:56 AM,73.9,68.0,82,29.97,9.0,East,17.3,20.7,N/A,,Overcast,80,2013-09-08 06:56:00
2:56 AM,71.1,64.9,81,29.99,8.0,ENE,13.8,20.7,N/A,,Overcast,60,2013-09-08 07:56:00
3:56 AM,69.1,62.1,78,30.00,10.0,ENE,10.4,-,N/A,,Overcast,70,2013-09-08 08:56:00
4:56 AM,68.0,60.1,76,29.99,10.0,ENE,12.7,21.9,N/A,,Overcast,60,2013-09-08 09:56:00
5:56 AM,66.9,57.9,73,30.01,10.0,East,10.4,-,N/A,,Overcast,80,2013-09-08 10:56:00
6:56 AM,66.0,57.9,75,30.03,10.0,East,10.4,-,N/A,,Overcast,90,2013-09-08 11:56:00
7:56 AM,66.0,59.0,78,30.03,10.0,East,9.2,-,N/A,,Overcast,90,2013-09-08 12:56:00
8:56 AM,66.0,60.1,81,30.03,10.0,East,11.5,-,N/A,,Overcast,90,2013-09-08 13:56:00
9:36 AM,66.2,60.8,83,30.07,10.0,East,9.2,-,N/A,,Overcast,90,2013-09-08 14:36:00
9:56 AM,66.0,60.1,81,30.05,10.0,ENE,9.2,-,N/A,,Overcast,70,2013-09-08 14:56:00
10:56 AM,66.9,61.0,81,30.06,10.0,ENE,8.1,-,N/A,,Overcast,60,2013-09-08 15:56:00
11:56 AM,69.1,62.1,78,30.05,10.0,ENE,10.4,-,N/A,,Overcast,60,2013-09-08 16:56:00
12:56 PM,70.0,63.0,78,30.04,10.0,East,6.9,-,N/A,,Overcast,80,2013-09-08 17:56:00
1:56 PM,72.0,64.0,76,30.01,10.0,East,8.1,-,N/A,,Overcast,80,2013-09-08 18:56:00
2:56 PM,72.0,64.0,76,30.00,10.0,East,11.5,-,N/A,,Overcast,80,2013-09-08 19:56:00
3:56 PM,73.0,64.9,76,29.97,10.0,East,9.2,-,N/A,,Overcast,80,2013-09-08 20:56:00
4:56 PM,72.0,64.9,78,29.96,9.0,East,10.4,-,N/A,,Overcast,90,2013-09-08 21:56:00
5:56 PM,72.0,64.9,78,29.94,9.0,East,11.5,-,N/A,,Overcast,90,2013-09-08 22:56:00
6:56 PM,72.0,64.9,78,29.93,7.0,ESE,6.9,-,N/A,,Overcast,120,2013-09-08 23:56:00
7:56 PM,71.1,64.9,81,29.95,9.0,ESE,8.1,-,N/A,,Overcast,120,2013-09-09 00:56:00
8:56 PM,70.0,64.9,84,29.96,8.0,East,4.6,-,N/A,,Overcast,90,2013-09-09 01:56:00
9:56 PM,70.0,64.9,84,29.95,8.0,East,6.9,-,N/A,,Mostly Cloudy,90,2013-09-09 02:56:00
10:07 PM,69.8,64.4,83,29.97,8.0,East,6.9,-,N/A,,Mostly Cloudy,90,2013-09-09 03:07:00
10:22 PM,69.8,64.4,83,29.97,8.0,East,6.9,-,N/A,,Overcast,80,2013-09-09 03:22:00
10:56 PM,70.0,64.0,81,29.95,8.0,East,6.9,-,N/A,,Overcast,90,2013-09-09 03:56:00
11:56 PM,70.0,64.0,81,29.94,8.0,East,6.9,-,N/A,,Overcast,100,2013-09-09 04:56:00